Location: Huntsville
(41.2590°N, 111.7678°W)
Time: 19:50:53
(UTC+00:00)

Explorer 7 - Pass Details

Date: 19 June 2021
Orbit: 484 x 676 km, 50.3° (Epoch: 30 July)

Event Time Altitude Azimuth Distance (km) Brightness Sun altitude
Rises 11:14:08 0° 298° (WNW) 2,902 10.3 -6.9°
Reaches altitude 10° 11:16:38 10° 291° (WNW) 1,960 9.3 -6.5°
Maximum altitude 11:20:46 38° 223° (SW) 902 7.4 -5.9°
Drops below altitude 10° 11:24:39 10° 155° (SSE) 1,835 9.4 -5.3°
Sets 11:26:55 0° 147° (SSE) 2,691 10.3 -5.0°
